OneWeb SL0260

operational
NORAD ID: 48978 Int'l Des: 2021-060 Owner: ONEWEBN Country: UK Constellation: oneweb
LEOCIRCULARPOLARONEWEB_TYPE

About OneWeb SL0260

Description loading...

Live Position

Loading 3D Globe...

Upcoming Passes

Altitude History

Altitude vs Time

uPlot chart will show altitude changes over time

Two-Line Element Set

1 48978U 21060M 26071.04118457 -.00000028 00000-0 -10603-3 0 9996
2 48978 87.9007 248.1082 0001247 102.9888 257.1382 13.16594853226827
Epoch: Mar 12, 2026 • Age: 42 hours

Current Status

Altitude 1210.1 km
Velocity 7.26 km/s
Sub-Earth Point 78.00°N, 17.93°W
Launch Date Jul 1, 2021
Age 4.6 years
Type internet

Technical Details

Classification Payload
Mass 148.00 kg
Dry Mass 140.00 kg
Total Mass 148.00 kg
Length 1.30 m
Diameter 1.00 m
Span 5.00 m
Shape Trapezoid+2 pan
Manufacturer ONEWUS
Bus Type ARROW
Phase Status In Orbit
Owner/State ONEWEBN/UK

Large Constellations

Loading constellations...